Location: Newark
(46.7000°N, 60.6000°W)
Time: 04:02:13
(UTC+00:00)

A-11 Canister half - Pass Details

Date: 30 October 2020
Orbit: 1525 x 1683 km, 47.3° (Epoch: 23 November)

Event Time Altitude Azimuth Distance (km) Brightness Sun altitude
Rises 00:02:05 0° 291° (WNW) 4,702 12.6 -33.1°
Reaches altitude 10° 00:05:15 10° 286° (WNW) 3,707 11.8 -33.7°
Maximum altitude 00:14:04 50° 215° (SW) 1,874 9.4 -35.1°
Enters shadow 00:15:25 47° 191° (S) 1,938 9.3 -35.3°
Drops below altitude 10° 00:22:54 10° 144° (SE) 3,701 - -36.5°
Sets 00:26:04 0° 139° (SE) 4,694 - -37.0°
